Location: ??????
(30.5519°N, 47.7720°E)
Time: 17:07:49
(UTC+00:00)

Cosmos 2292 Rocket - Pass Details

Date: 24 January 2021
Orbit: 380 x 1450 km, 83.0° (Epoch: 01 March)

Event Time Altitude Azimuth Distance (km) Brightness Sun altitude
Rises 15:51:15 0° 177° (S) 3,949 7.8 -20.0°
Reaches altitude 10° 15:54:13 10° 175° (S) 2,827 7.0 -20.7°
Maximum altitude 16:00:32 65° 95° (E) 912 4.1 -22.0°
Enters shadow 16:02:30 37° 27° (NNE) 1,182 4.6 -22.4°
